Printer-friendly version

IAU Minor Planet Center

Minor Planet Center

MPEC 2008-V06 : 2008 UA202

The following Minor Planet Electronic Circular may be linked-to from your own Web pages, but must not otherwise be redistributed electronically.


Read MPEC 2008-V05 Read MPEC 2008-V07


M.P.E.C. 2008-V06                                Issued 2008 Nov. 3, 14:21 UT

     The Minor Planet Electronic Circulars contain information on unusual
         minor planets and routine data on comets.  They are published
   on behalf of Commission 20 of the International Astronomical Union by the
          Minor Planet Center, Smithsonian Astrophysical Observatory,
                          Cambridge, MA 02138, U.S.A.

             Prepared using the Tamkin Foundation Computer Network

                              MPC@CFA.HARVARD.EDU
          URL http://www.cfa.harvard.edu/iau/mpc.html  ISSN 1523-6714

                                  2008 UA202

Observations:
     K08UK2A* C2008 10 29.35449 01 26 04.56 +13 40 53.5          21.1 V EV006G96
     K08UK2A  C2008 10 29.36069 01 26 04.81 +13 40 55.5          21.1 V EV006G96
     K08UK2A  C2008 10 29.36681 01 26 05.10 +13 40 57.9          21.2 V EV006G96
     K08UK2A  C2008 10 29.37294 01 26 05.42 +13 41 00.6          21.2 V EV006G96
     K08UK2A  C2008 10 29.41698 01 26 08.01 +13 40 54.7          20.2 R EV006H01
     K08UK2A  C2008 10 29.42076 01 26 08.43 +13 40 55.4          20.3 R EV006H01
     K08UK2A  C2008 10 29.42204 01 26 09.13 +13 41 14.4          21.7 V EV006G96
     K08UK2A  C2008 10 29.42466 01 26 08.85 +13 40 56.2          20.2 R EV006H01
     K08UK2A  C2008 10 29.42618 01 26 09.56 +13 41 15.2          21.6 V EV006G96
     K08UK2A  C2008 10 29.42741 01 26 09.20 +13 40 56.8          20.2 R EV006H01
     K08UK2A  C2008 10 29.43032 01 26 09.99 +13 41 16.0          21.1 V EV006G96
     K08UK2A  C2008 10 29.43447 01 26 10.50 +13 41 17.1          21.8 V EV006G96
     K08UK2A HC2008 10 30.31687 01 29 17.85 +13 53 08.6                 EV006291
     K08UK2A HC2008 10 30.32070 01 29 17.85 +13 53 10.3                 EV006291

Observer details:
291 LPL/Spacewatch II.  Observer T. H. Bressi.  1.8-m f/2.7 reflector + CCD.
G96 Mt. Lemmon Survey.  Observer E. Beshore.  Measurers E. C. Beshore,
    A. Boattini, G. J. Garradd, A. R. Gibbs, A. D. Grauer, R. E. Hill,
    R. A. Kowalski, S. M. Larson, R. H. McNaught.  1.5-m reflector + CCD.
H01 Magdalena Ridge Observatory, Socorro.  Observer W. H. Ryan.  2.4-m f/8.9
    reflector + CCD.

Orbital elements:
2008 UA202                                               Earth MOID = 0.0003 AU
Epoch 2008 Nov. 30.0 TT = JDT 2454800.5                 MPC
M  97.35030              (2000.0)            P               Q
n   0.94004387     Peri.  299.01682     +0.77360173     +0.63366967
a   1.0320577      Node    21.66195     -0.57970681     +0.70884173
e   0.0706094      Incl.    0.27398     -0.25589132     +0.30984860
P   1.05           H   29.4           G   0.15           U   9
Residuals in seconds of arc
081029 G96  0.1-  0.4+    081029 H01  0.3-  0.2+    081029 G96  0.1-  0.3-
081029 G96  0.2-  0.2-    081029 G96  0.1-  0.2-    081029 G96  0.6+  0.0
081029 G96  0.1-  0.3-    081029 H01  0.6-  0.2+    081030 291  0.1-  0.1+
081029 G96  0.0   0.1+    081029 G96  0.0   0.3-    081030 291  0.2-  0.0
081029 H01  0.4-  0.3+    081029 H01  0.2-  0.3+

Ephemeris:
2008 UA202               a,e,i = 1.03, 0.07, 0                   q = 0.9592
Date    TT    R. A. (2000) Decl.     Delta      r     Elong.  Phase     V
2008 10 31    01 31.38   +14 03.0    0.0182   1.011   167.8    12.0    21.4
2008 11 01    01 33.88   +14 12.1    0.0197   1.012   167.4    12.3    21.6
2008 11 02    01 36.08   +14 19.9    0.0212   1.013   167.0    12.7    21.8
2008 11 03    01 38.03   +14 26.7    0.0228   1.014   166.6    13.1    22.0
2008 11 04    01 39.80   +14 32.7    0.0243   1.015   166.0    13.6    22.1
2008 11 05    01 41.41   +14 38.1    0.0259   1.017   165.5    14.2    22.3
2008 11 06    01 42.90   +14 43.0    0.0275   1.018   164.9    14.7    22.5
2008 11 07    01 44.29   +14 47.5    0.0290   1.019   164.2    15.3    22.6
2008 11 08    01 45.59   +14 51.6    0.0306   1.020   163.6    15.9    22.7
2008 11 09    01 46.83   +14 55.5    0.0323   1.021   162.9    16.6    22.9
2008 11 10    01 48.01   +14 59.1    0.0339   1.023   162.2    17.2    23.0

Timothy B. Spahr             (C) Copyright 2008 MPC           M.P.E.C. 2008-V06

Read MPEC 2008-V05 Read MPEC 2008-V07


Our Web policy. Index to the CBAT/MPC/ICQ pages.


Valid HTML 4.01!